[[{"header":{"parameterUnit":"m.s-1","parameterCategory":1,"la1":30.2991,"la2":30.254,"lo1":-89.0895,"lo2":-89.0444,"dx":0.0017,"dy":0.0017,"nx":28,"ny":28,"refTime":"2023-02-06T15:00:00:Z","depth":0,"parameterNumber":2,"parameterNumberName":"U-component_of_WINDS"},"data":[0,0,0,0,0,0,0,0,0,0,0,0,0,0,0,0,0,0,0,0,0,0,0,0,0,0,0,0,0,0,0,0,0,0,0,0,0,0,0,0,0,0,0,0,0,0,0,0,0,0,0,0,0,0,0,0,0,0,-5.8832,-5.8833,0,-5.8912,-5.8913,-5.8914,-5.8867,-5.8864,-5.8862,-5.886,-5.8934,-5.8938,-5.8942,0,0,0,0,0,0,0,0,0,0,0,0,0,-5.8632,-5.8636,-5.8832,-5.8833,-5.8834,-5.8912,-5.8913,-5.8914,-5.8867,-5.8864,-5.8861,-5.8859,-5.8932,-5.8937,-5.8942,0,0,0,0,0,0,0,0,0,0,0,0,0,-5.8716,-5.8637,-5.8832,-5.882,-5.882,-5.8912,-5.8913,-5.8915,-5.8868,-5.8864,-5.8861,-5.8858,-5.8931,-5.8937,-5.8943,-5.9048,0,0,-5.8961,-5.8964,0,0,0,0,0,0,0,0,-5.8711,-5.8723,-5.8821,-5.8821,-5.8821,-5.8876,-5.8869,-5.8959,-5.8868,-5.8849,-5.886,-5.8856,-5.8917,-5.8924,-5.8946,-5.9051,-5.9055,-5.8962,-5.8965,-5.8968,-5.897,0,0,0,0,0,0,0,-5.8705,-5.8719,-5.8863,-5.8822,-5.8823,-5.8809,-5.8817,-5.8886,-5.8901,-5.8851,-5.8847,-5.8858,-5.8916,-5.894,-5.8947,-5.9056,-5.8962,-5.8967,-5.8971,-5.8973,-5.9253,-5.9256,0,0,0,0,0,0,-5.8701,-5.8715,-5.8861,-5.8866,-5.8757,-5.8815,-5.8824,-5.8862,-5.89,-5.8903,-5.8861,-5.8855,-5.8931,-5.894,-5.895,-5.9075,-5.8968,-5.8974,-5.8977,-5.9249,-5.9253,-5.9257,0,0,0,0,0,0,-5.8697,-5.8715,-5.8858,-5.879,-5.8807,-5.8822,-5.8865,-5.8865,-5.8889,-5.8908,-5.8909,-5.8883,-5.8929,-5.8941,-5.9025,-5.9077,-5.8977,-5.8982,-5.9244,-5.925,-5.9255,-5.9328,0,0,0,0,0,0,-5.8692,-5.8714,-5.8755,-5.8791,-5.8811,-5.8933,-5.8868,-5.8869,-5.8901,-5.8895,-5.8929,-5.8931,-5.8927,-5.9016,-5.9031,-5.9084,-5.8987,-5.924,-5.9247,-5.9254,-5.932,-5.9335,-5.9347,0,0,0,0,0,-5.8685,-5.877,-5.8758,-5.8775,-5.8863,-5.8937,-5.8947,-5.8943,-5.8905,-5.8946,-5.8958,-5.893,-5.907,-5.9025,-5.9041,-5.9097,-5.9236,-5.9245,-5.9253,-5.9314,-5.9332,-5.9347,0,0,0,0,0,0,-5.8736,-5.8775,-5.8761,-5.8861,-5.8897,-5.8928,-5.8979,-5.8962,-5.9006,-5.8998,-5.8989,-5.8997,-5.9084,-5.9099,-5.9048,-5.9201,-5.9147,-5.9159,-5.9188,-5.9205,-5.9218,-5.9211,-5.8992,0,0,0,0,0,-5.876,-5.8819,-5.8848,-5.8933,-5.8953,-5.8964,-5.8995,-5.899,-5.9024,-5.9038,-5.9056,-5.9089,-5.914,-5.9174,-5.9222,-5.9324,-5.933,-5.937,-5.9384,-5.9395,-5.9404,-5.9459,-5.9477,-5.9285,-5.9285,-5.9285,0,0,-5.8807,-5.8836,-5.8873,-5.8945,-5.8971,-5.903,-5.8976,-5.904,-5.9083,-5.9047,-5.9127,-5.9142,-5.9178,-5.9272,-5.9314,-5.9287,-5.9459,-5.9406,-5.9414,-5.9418,-5.9469,-5.9488,-5.9504,-5.9291,-5.929,-5.9289,0,0,-5.8924,-5.8953,-5.9027,-5.9057,-5.9099,-5.9107,-5.9125,-5.9161,-5.917,-5.9252,-5.9227,-5.9277,-5.9366,-5.9392,-5.9418,-5.955,-5.9525,-5.9566,-5.9634,-5.9688,-5.9703,-5.9716,-5.9762,-5.9778,-5.9576,-5.9576,-5.9576,0,-5.8977,-5.9067,-5.9067,-5.9134,-5.9166,-5.9141,-5.9215,-5.9243,-5.9297,-5.9319,-5.9289,-5.9402,-5.9424,-5.9523,-5.9556,-5.9578,-5.9597,-5.956,-5.9701,-5.9715,-5.9727,-5.977,-5.9787,-5.9581,-5.958,-5.958,-5.9579,0,-5.913,-5.9193,-5.9248,-5.9306,-5.9344,-5.9414,-5.9423,-5.9461,-5.9454,-5.9464,-5.9548,-5.9575,-5.9628,-5.9652,-5.9644,-5.9751,-5.9733,-5.9703,-5.9647,-5.975,-5.979,-5.9807,-5.9587,-5.9585,-5.9584,-5.9583,0,0,-5.9276,-5.9337,-5.9356,-5.9383,-5.943,-5.9478,-5.9547,-5.9603,-5.9636,-5.9676,-5.9732,-5.981,-5.9784,-5.9812,-5.9807,-5.9855,-5.9956,-5.9819,-5.982,-5.9842,-6.0075,-6.0095,-6.0114,-5.9943,-5.9946,-5.9948,-6.0071,0,-5.9394,-5.9518,-5.9522,-5.9634,-5.9692,-5.9671,-5.9732,-5.9766,-5.9779,-5.9828,-5.984,-5.9895,-5.9857,-5.9874,-5.9921,-5.9934,-6.0003,-5.9926,-5.9992,-5.9994,-5.998,-6.0135,-6.0156,-6.027,-6.0087,-6.009,-6.0091,0,-5.9547,-5.9597,-5.9716,-5.9757,-5.9781,-5.9836,-5.9888,-5.9937,-5.9975,-5.9981,-6.0016,-6.0005,-6.0074,-6.002,-6.0114,-6.0062,-6.009,-6.0101,-6.0105,-6.0108,-6.0046,-6.014,-6.0307,-6.0323,-6.0117,-6.0115,-6.0113,0,-5.964,-5.9736,-5.982,-5.9843,-5.9894,-5.9932,-5.9955,-5.9991,-6.0025,-6.007,-6.0092,-6.0144,-6.0171,-6.0211,-6.0214,-6.0175,-6.0309,-6.0255,-6.0313,-6.0313,-6.0339,-6.0336,-6.051,-6.0362,-6.0362,-6.0362,-6.0361,0,-5.9769,-5.9843,-5.9862,-5.9913,-5.9995,-5.9999,-6.0078,-6.0097,-6.013,-6.0183,-6.0168,-6.0218,-6.022,-6.0271,-6.0274,-6.0351,-6.0364,-6.0368,-6.0367,-6.0368,-6.0367,-6.0383,-6.0374,-6.0366,-6.0365,-6.0364,-6.0364,0,-5.9884,-5.9901,-5.9991,-6.0033,-6.0046,-6.0104,-6.0138,-6.0187,-6.02,-6.0267,-6.0283,-6.0302,-6.0362,-6.037,-6.0438,-6.044,-6.0532,-6.0524,-6.0519,-6.0517,-6.0574,-6.0567,-6.0761,-6.0785,-6.0625,-6.0627,-6.0628,0,-5.9964,-6.002,-6.0071,-6.0107,-6.0133,-6.0191,-6.0227,-6.0233,-6.0271,-6.0322,-6.0363,-6.0422,-6.0468,-6.0564,-6.0582,-6.0635,-6.0626,-6.0691,-6.0633,-6.0632,-6.0624,-6.0619,-6.0624,-6.07,-6.0702,-6.0703,-6.0704,0,-6.0103,-6.011,-6.0164,-6.0222,-6.0266,-6.0311,-6.0353,-6.0383,-6.0395,-6.0438,-6.05,-6.0537,-6.0609,-6.0667,-6.0719,-6.074,-6.0723,-6.0724,-6.0739,-6.0738,-6.0732,-6.0734,-6.0546,-6.0717,-6.0716,-6.0715,-6.0714,-6.0714,-6.0201,-6.025,-6.0295,-6.0355,-6.0389,-6.043,-6.0478,-6.0499,-6.0552,-6.0613,-6.0614,-6.0682,-6.0721,-6.079,-6.0815,-6.0867,-6.0845,-6.0869,-6.0874,-6.0879,-6.0883,-6.0728,-6.0877,-6.0877,-6.0876,-6.0876,-6.0876,0,-6.0337,-6.0366,-6.0423,-6.0484,-6.0533,-6.0519,-6.0566,-6.0606,-6.0667,-6.0706,-6.0754,-6.0826,-6.0883,-6.0908,-6.0963,-6.1,-6.0994,-6.1014,-6.1009,-6.1014,-6.09,-6.088,-6.1018,-6.1018,-6.1018,-6.1018,-6.1018,-6.1018,-6.0413,-6.0497,-6.0509,-6.0609,-6.0636,-6.0705,-6.0733,-6.077,-6.0802,-6.0884,-6.0933,-6.095,-6.0984,-6.1042,-6.1093,-6.1099,-6.1119,-6.1142,-6.1144,-6.1036,-6.1022,-6.1008,-6.0989,-6.1147,-6.1147,-6.1252,-6.1253,-6.1254]},{"header":{"parameterUnit":"m.s-1","parameterCategory":1,"la1":30.2991,"la2":30.254,"lo1":-89.0895,"lo2":-89.0444,"dx":0.0017,"dy":0.0017,"nx":28,"ny":28,"refTime":"2023-02-06T15:00:00:Z","depth":0,"parameterNumber":3,"parameterNumberName":"V-component_of_WINDS"},"data":[0,0,0,0,0,0,0,0,0,0,0,0,0,0,0,0,0,0,0,0,0,0,0,0,0,0,0,0,0,0,0,0,0,0,0,0,0,0,0,0,0,0,0,0,0,0,0,0,0,0,0,0,0,0,0,0,0,0,2.0632,2.0631,0,2.0562,2.0561,2.056,2.0536,2.0537,2.0537,2.0537,2.0459,2.0457,2.0454,0,0,0,0,0,0,0,0,0,0,0,0,0,2.0739,2.0737,2.0632,2.0631,2.063,2.0562,2.0561,2.056,2.0536,2.0537,2.0537,2.0537,2.046,2.0457,2.0454,0,0,0,0,0,0,0,0,0,0,0,0,0,2.0683,2.0737,2.0632,2.061,2.0608,2.0562,2.0561,2.056,2.0536,2.0537,2.0537,2.0537,2.0461,2.0457,2.0454,2.0423,0,0,2.0443,2.0441,0,0,0,0,0,0,0,0,2.0686,2.0679,2.0614,2.0612,2.0609,2.0559,2.057,2.0514,2.0536,2.0563,2.0537,2.0538,2.0491,2.0485,2.0471,2.0419,2.0416,2.0443,2.044,2.0439,2.0438,0,0,0,0,0,0,0,2.069,2.0682,2.0604,2.0613,2.061,2.0602,2.0595,2.056,2.0525,2.0561,2.0559,2.0551,2.049,2.0474,2.0469,2.0415,2.0443,2.044,2.0437,2.0436,2.0336,2.0335,0,0,0,0,0,0,2.0699,2.0685,2.0606,2.0602,2.065,2.06,2.0592,2.0574,2.0526,2.0519,2.0551,2.055,2.048,2.0473,2.0466,2.0428,2.0439,2.0436,2.0434,2.0336,2.0336,2.0335,0,0,0,0,0,0,2.0701,2.0692,2.0609,2.0643,2.0632,2.0598,2.0578,2.0572,2.0557,2.0518,2.0512,2.0542,2.048,2.0471,2.0435,2.0425,2.0434,2.0431,2.0337,2.0336,2.0335,2.0351,0,0,0,0,0,0,2.0704,2.0693,2.0682,2.0643,2.063,2.058,2.0577,2.0571,2.0552,2.0551,2.0508,2.0501,2.048,2.044,2.0431,2.042,2.0428,2.0338,2.0337,2.0336,2.0351,2.035,2.035,0,0,0,0,0,2.0708,2.0687,2.0682,2.0672,2.0616,2.058,2.0572,2.055,2.0551,2.0539,2.0515,2.0503,2.0428,2.0437,2.0426,2.0414,2.0338,2.0337,2.0336,2.0351,2.035,2.035,0,0,0,0,0,0,2.0722,2.0682,2.0675,2.0641,2.0615,2.0576,2.056,2.055,2.0521,2.052,2.0492,2.0482,2.0448,2.0427,2.0438,2.0382,2.0382,2.0379,2.0397,2.0396,2.0396,2.0401,2.0425,0,0,0,0,0,2.0723,2.0698,2.0663,2.0636,2.0624,2.0595,2.0578,2.0563,2.0533,2.0521,2.0494,2.0464,2.0434,2.0414,2.0384,2.0348,2.0338,2.0334,2.0334,2.0334,2.0331,2.0311,2.0309,2.0331,2.0331,2.0331,0,0,2.072,2.0695,2.0681,2.0639,2.0616,2.0591,2.0585,2.0557,2.0537,2.0516,2.0481,2.046,2.0425,2.0389,2.0372,2.037,2.0323,2.0333,2.0333,2.033,2.031,2.0308,2.0306,2.033,2.0331,2.0331,0,0,2.0704,2.0683,2.0659,2.0638,2.0605,2.0586,2.0581,2.0544,2.053,2.0495,2.048,2.0454,2.0403,2.0378,2.0359,2.0337,2.0324,2.0327,2.0325,2.0306,2.0304,2.0302,2.0294,2.0292,2.0325,2.0325,2.0325,0,2.0705,2.0667,2.0647,2.0622,2.0603,2.0586,2.0562,2.0541,2.0499,2.0486,2.0486,2.0422,2.0397,2.0356,2.0351,2.0336,2.0328,2.0331,2.0307,2.0305,2.0303,2.0294,2.0291,2.0325,2.0325,2.0325,2.0325,0,2.0671,2.0645,2.0629,2.0593,2.0573,2.0547,2.0522,2.0504,2.0492,2.0473,2.0437,2.0407,2.0371,2.036,2.0346,2.0317,2.0318,2.0313,2.0311,2.0302,2.0293,2.029,2.0326,2.0326,2.0326,2.0326,0,0,2.0659,2.0614,2.0609,2.0593,2.0557,2.0535,2.0509,2.0477,2.0462,2.0434,2.041,2.0369,2.0364,2.0343,2.0326,2.031,2.0294,2.0307,2.0305,2.0305,2.026,2.0264,2.0261,2.0287,2.0286,2.0286,2.0263,0,2.0638,2.0593,2.0575,2.0538,2.0513,2.0498,2.0475,2.045,2.0432,2.0407,2.0386,2.0357,2.0354,2.0341,2.0324,2.03,2.0285,2.0301,2.0263,2.0262,2.0272,2.0256,2.026,2.024,2.026,2.0259,2.0259,0,2.0606,2.0582,2.0543,2.0512,2.0501,2.0481,2.045,2.0428,2.0399,2.0386,2.0364,2.0349,2.032,2.0323,2.0281,2.0293,2.0277,2.0263,2.0262,2.0256,2.0259,2.025,2.0233,2.023,2.0253,2.0254,2.0254,0,2.0602,2.0559,2.0531,2.0517,2.048,2.0466,2.045,2.0421,2.0403,2.0376,2.0364,2.0333,2.0316,2.0291,2.0268,2.0272,2.0229,2.023,2.0217,2.0218,2.0208,2.0209,2.0188,2.0199,2.0199,2.0199,2.0199,0,2.058,2.0556,2.0528,2.0511,2.0484,2.0464,2.0437,2.0419,2.0395,2.0372,2.0356,2.0335,2.0307,2.0282,2.0263,2.0232,2.0224,2.0213,2.0208,2.0214,2.0215,2.0202,2.0202,2.0198,2.0198,2.0198,2.0198,0,2.057,2.055,2.0518,2.0487,2.0478,2.046,2.0432,2.0414,2.0396,2.0368,2.036,2.0331,2.0301,2.0277,2.0236,2.0224,2.0191,2.0186,2.0202,2.0199,2.0188,2.019,2.0157,2.0152,2.0167,2.0167,2.0167,0,2.0556,2.0539,2.0507,2.0492,2.0476,2.0452,2.0435,2.0414,2.0396,2.0364,2.0349,2.0319,2.0293,2.0245,2.0219,2.0188,2.0182,2.0173,2.0177,2.0184,2.0181,2.0183,2.0181,2.0172,2.0172,2.0172,2.0172,0,2.0535,2.0527,2.0504,2.0478,2.0458,2.0436,2.0413,2.0401,2.0376,2.0357,2.0328,2.0308,2.0269,2.0238,2.0205,2.0186,2.0174,2.0171,2.0167,2.0172,2.0182,2.0176,2.02,2.0172,2.0172,2.0172,2.0172,2.0172,2.0522,2.0507,2.0482,2.0457,2.0439,2.0418,2.04,2.0382,2.0358,2.0326,2.0314,2.0284,2.0256,2.0211,2.0192,2.0167,2.0166,2.0159,2.0157,2.0156,2.0157,2.0187,2.0161,2.0161,2.0161,2.0161,2.0161,0,2.05,2.0485,2.0462,2.0432,2.0413,2.0407,2.0382,2.0365,2.0339,2.0316,2.0292,2.0258,2.0229,2.0202,2.0172,2.0157,2.0151,2.0149,2.015,2.0146,2.016,2.0167,2.0155,2.0155,2.0155,2.0155,2.0155,2.0155,2.0486,2.0459,2.0449,2.0412,2.0396,2.0369,2.0355,2.0336,2.0317,2.0281,2.0258,2.0242,2.0216,2.0184,2.0157,2.015,2.0139,2.0139,2.013,2.0144,2.0144,2.0145,2.0152,2.0137,2.0137,2.0118,2.0118,2.0117]}]]